#timestamp,LO_Frequency,Hit,StdDev 
1579532415.4,286046998.8,N
1579532435.3,286047001.2,N
1579532455.1,286046996.6,N
1579532475.8,286046997.5,N
1579532495.7,286046996.9,N
1579532515.5,286046999.2,N
1579532535.4,286046997.3,N
1579532555.2,286046997.1,N
1579532575.0,286046995.7,N
1579532575.9,286046995.7,N
1579532595.8,286046995.1,N
1579532615.6,286046997.5,N
1579532665.5,286046999.6,E
1579532675.4,286046998.5,N
1579532695.2,286046998.2,P
1579532715.1,286046998.7,P
1579532716.0,286046998.7,Y
1579532735.8,286046996.6,P
1579532755.6,286046997.4,N
1579532775.5,286046998.7,N
1579532795.3,286046996.9,Y
1579532815.2,286046998.7,P
1579532835.9,286046999.4,N
1579532885.8,286046998.7,E
1579532895.7,286046999.0,N
1579532915.5,286046999.5,P
1579532935.4,286046999.3,N
1579532955.2,286047000.6,N
1579532975.0,286047001.2,N
1579532975.9,286047001.2,N
1579532995.8,286047001.8,N
1579533015.6,286047002.1,N
1579533035.5,286047002.3,N
1579533055.3,286047000.9,N
1579533075.1,286047000.7,N
1579533095.9,286046998.1,N
1579533115.7,286046998.3,N
1579533135.5,286046996.6,N
1579533155.4,286047001.0,N
1579533175.2,286046999.4,N
1579533195.1,286046996.5,N
1579533196.0,286046996.5,N
1579533215.8,286046999.1,N
1579533235.6,286046997.2,N
1579533255.5,286046997.2,N
1579533275.3,286046997.2,N
1579533295.1,286046997.2,N
1579533315.9,286046997.9,N
1579533335.7,286046997.3,N
1579533355.6,286046996.1,N
1579533375.4,286046995.3,N
1579533395.2,286046997.5,N
1579533415.1,286046997.4,N
1579533416.0,286046997.4,N
1579533435.8,286046999.6,N
1579533455.6,286046996.7,N
1579533475.5,286046999.3,N
1579533495.3,286046999.6,N
1579533515.2,286046999.4,N
1579533535.9,286046998.0,N
1579533555.7,286046993.3,Y
1579533575.6,286046996.9,P
1579533595.4,286046998.8,N
1579533615.2,286046998.5,N
1579533635.1,286046999.3,N
1579533636.0,286046999.3,N
1579533655.8,286046998.6,N
1579533675.7,286046999.6,N
1579533695.5,286046997.0,Y
1579533715.3,286046998.4,P
1579533735.2,286046996.6,P
1579533755.0,286046997.2,P
1579533755.9,286046997.2,Y
1579533775.7,286047001.1,P
1579533795.6,286047000.3,N
1579533815.4,286047002.8,N
1579533835.3,286047001.7,N
1579533855.1,286047002.5,N
1579533856.0,286047002.5,N
1579533875.8,286046999.7,N
1579533895.7,286047002.3,N
1579533915.5,286047003.7,N
1579533935.3,286047003.9,N
1579533955.2,286047001.6,N
1579533975.0,286047001.4,N
1579533975.9,286047001.4,N
1579533995.8,286047002.6,N
1579534015.6,286047001.9,N
1579534035.4,286047004.4,N
1579534055.3,286047001.4,N
1579534075.1,286047005.8,Y
1579534095.9,286047003.8,P
1579534145.7,286047004.1,E
1579534155.6,286047000.3,N
1579534175.5,286046999.1,P
1579534195.3,286046999.4,N
1579534215.2,286046997.4,Y
1579534235.9,286046995.4,P
1579534255.7,286046995.2,N
1579534275.6,286046994.9,N
1579534295.4,286046996.2,N
1579534315.2,286046995.7,N
1579534335.1,286046993.4,Y
1579534336.0,286046993.4,P
1579534355.8,286046999.1,N
1579534375.7,286046996.5,N
1579534395.5,286046996.6,N
1579534415.3,286046996.9,N
1579534435.2,286047001.2,N
1579534455.9,286046998.4,N
1579534475.7,286046998.1,N
1579534495.6,286047001.2,N
1579534515.4,286047000.0,N
1579534535.3,286047000.5,N
1579534555.1,286047000.2,N
1579534556.0,286047000.2,N
1579534575.8,286047002.4,N
1579534595.7,286047001.8,N
1579534615.5,286047005.6,N
1579534635.3,286047003.9,N
1579534655.2,286046999.7,N
1579534675.0,286047000.1,N
1579534675.9,286047000.1,N
1579534695.8,286047002.0,N
1579534715.6,286046999.8,N
1579534735.4,286047000.3,N
1579534755.3,286047000.6,N
1579534775.1,286047000.1,N
1579534795.9,286047002.3,N
1579534815.7,286047000.8,N
1579534835.5,286047000.8,N
1579534855.4,286047001.7,N
1579534875.2,286047002.7,N
1579534895.0,286046999.7,N
1579534895.9,286046999.7,N
1579534915.8,286047001.7,N
1579534935.6,286047000.1,N
1579534955.5,286047000.6,N
1579534975.3,286047000.7,N
1579534995.1,286046998.1,N
1579535015.9,286047001.2,N
1579535035.7,286047000.1,N
1579535055.5,286046998.5,N
1579535075.4,286047000.8,N
1579535095.2,286047001.1,N
1579535115.1,286046998.2,N
1579535116.0,286046998.2,N
1579535135.8,286046999.6,N
1579535155.6,286046998.1,N
1579535175.5,286046998.6,N
1579535195.3,286047001.0,N
1579535215.1,286046999.7,N
1579535235.9,286047001.2,N
1579535255.7,286046999.9,N
1579535275.6,286047000.2,N
1579535295.4,286047001.3,N
1579535315.2,286047004.0,Y
1579535335.1,286047004.0,P
1579535336.0,286047004.0,N
1579535355.8,286047003.4,N
1579535375.7,286047003.5,N
1579535395.5,286047003.5,N
1579535415.3,286047002.9,N
1579535435.2,286047003.0,N
1579535455.0,286047005.4,Y
1579535455.9,286047005.4,P
1579535475.7,286047001.0,N
1579535495.6,286047000.7,N
1579535515.4,286046999.2,N
1579535535.3,286046999.5,N
1579535555.1,286046996.8,N
1579535556.0,286046996.8,N
1579535575.8,286046996.5,N
1579535595.7,286046997.3,N
1579535615.5,286046999.6,N
1579535635.3,286046997.9,N
1579535655.2,286046998.0,N
1579535675.0,286046995.2,N
1579535675.9,286046995.2,N
1579535695.8,286046997.5,N
1579535715.6,286046997.5,N
1579535735.4,286046996.0,N
1579535755.3,286046993.3,N
1579535775.1,286046995.7,N
1579535795.8,286046993.6,N
1579535815.7,286046993.4,N
1579535835.5,286046993.9,N
1579535855.4,286046995.4,N
1579535875.2,286046995.6,N
1579535895.0,286046995.6,N
1579535895.9,286046995.6,N
1579535915.8,286046996.9,N
1579535935.6,286046995.7,N
1579535955.5,286046996.2,N
1579535975.3,286046995.6,N
1579535995.1,286046996.0,N
